Location: Unspecified
(0.0000°N, 0.0000°E)
Time: 15:04:43
(UTC+00:00)

Vanguard 1 - Pass Details

Date: 07 October 2023
Orbit: 652 x 3828 km, 34.3° (Epoch: 05 December)

Event Time Altitude Azimuth Distance (km) Brightness Sun altitude
Rises 00:34:23 0° 233° (SW) 7,519 14.5 -77.3°
Enters shadow 00:38:54 - 223° (SW) 6,785 14.3 -76.2°
Exits shadow 00:58:52 - 152° (SSE) 4,852 13.7 -71.5°
Sets 01:01:28 0° 141° (SE) 5,006 13.9 -70.9°
